Simultaneous Nadir Overpasses (SNOs) Predictions

Prediction of SNOs between GOES-14 and NPP Satellite Orbit:

Table of predicted SNOs for the next 14.0 days since TLE Epoch: 7/31/2020
Index Date Time (GOES-14) GOES-14 Lat,Lon NPP Lat,Lon Distance(km) Time Diff (sec)
1 08/01/2020 20:27:06 0.38,-104.56 0.07,-105.86 148.31 80
2 08/02/2020 20:11:03 0.36,-104.57 1.12,-101.33 369.11 80
3 08/04/2020 08:32:50 -0.40,-104.39 0.12,-106.59 251.31 80
4 08/05/2020 08:14:06 -0.38,-104.40 -0.93,-102.07 265.72 80
5 08/06/2020 20:33:25 0.41,-104.59 -0.20,-107.39 318.92 80
6 08/07/2020 20:17:20 0.40,-104.60 0.80,-102.86 199.02 80
7 08/09/2020 08:39:08 -0.42,-104.44 0.38,-108.12 419.28 80
8 08/10/2020 08:17:44 -0.41,-104.45 -0.61,-103.59 97.78 80
9 08/11/2020 20:39:42 0.44,-104.62 -0.51,-108.91 488.29 80
10 08/12/2020 20:23:38 0.43,-104.64 0.49,-104.38 29.47 80
